This is the latest recevied weather packets stored in our database for station/object W5LND-10. If no packets are shown the sender has not sent any weather packets the latest 10 day(s).
| Time | Temp. | Humidity | Pressure | Rain* | Wind** | Luminosity | Snow |
|---|---|---|---|---|---|---|---|
| 1777223495 | 32.78° C | 15% | 1002.7 hPa | 0 mm | - | 1034 W/m² | - |
| 1777223195 | 32.22° C | 15% | 1002.8 hPa | 0 mm | - | 1025 W/m² | - |
| 1777222896 | 31.67° C | 15% | 1003 hPa | 0 mm | - | 1021 W/m² | - |
| 1777222596 | 31.11° C | 16% | 1002.9 hPa | 0 mm | - | 1013 W/m² | - |
| 1777222296 | 31.11° C | 17% | 1003 hPa | 0 mm | - | 1004 W/m² | - |
| 1777221995 | 30.56° C | 17% | 1003 hPa | 0 mm | - | 998 W/m² | - |
| 1777221696 | 30.56° C | 17% | 1003 hPa | 0 mm | - | 993 W/m² | - |
| 1777221396 | 30.56° C | 18% | 1002.9 hPa | 0 mm | - | 981 W/m² | - |
| 1777221096 | 30° C | 19% | 1003.1 hPa | 0 mm | - | 967 W/m² | - |
| 1777220796 | 30° C | 19% | 1003 hPa | 0 mm | - | 960 W/m² | - |
| 1777220496 | 30° C | 20% | 1003.1 hPa | 0 mm | - | 947 W/m² | - |
| 1777220196 | 29.44° C | 22% | 1003.1 hPa | 0 mm | - | 933 W/m² | - |
| 1777219896 | 29.44° C | 25% | 1003.1 hPa | 0 mm | - | 923 W/m² | - |
| 1777219596 | 28.89° C | 26% | 1003 hPa | 0 mm | - | 909 W/m² | - |
| 1777219296 | 28.89° C | 28% | 1003 hPa | 0 mm | - | 900 W/m² | - |
| 1777218996 | 28.33° C | 30% | 1003.1 hPa | 0 mm | - | 886 W/m² | - |
| 1777218696 | 28.33° C | 30% | 1003.1 hPa | 0 mm | - | 868 W/m² | - |
| 1777218396 | 27.78° C | 32% | 1003 hPa | 0 mm | - | 860 W/m² | - |
| 1777218096 | 27.78° C | 33% | 1003 hPa | 0 mm | - | 849 W/m² | - |
| 1777217796 | 27.22° C | 36% | 1002.9 hPa | 0 mm | - | 830 W/m² | - |
| 1777217496 | 26.67° C | 37% | 1002.7 hPa | 0 mm | - | 816 W/m² | - |
| 1777217196 | 26.67° C | 41% | 1002.8 hPa | 0 mm | - | 779 W/m² | - |
| 1777216896 | 26.11° C | 45% | 1002.8 hPa | 0 mm | - | 773 W/m² | - |
| 1777216596 | 26.11° C | 45% | 1002.8 hPa | 0 mm | - | 759 W/m² | - |
| 1777216296 | 25.56° C | 49% | 1002.7 hPa | 0 mm | - | 742 W/m² | - |
* Rain latest hour (hover to see other rain measurements)
** Current wind speed in m/s (hover to see current wind gust speed)